DECAYED

STARLINK-2065, 47672 (Decayed)

Orbit data source: Space-Track

STARLINK-2065, 47672 was a payload satellite owned by SpaceX/Seattle (US) in LEO that was launched on Tue, 16 Feb 2021 UTC via an FALCON 9 launch vehicle from the Air Force Eastern Test Range (AFETR). Payload-class satellites include a variety of spacecraft equipped with specific instruments for various scientific and technological missions. These include communications satellites like Starlink; space stations such as the ISS; scientific satellites like the Hubble; Earth observation satellites from companies like Planet Labs, Umbra, and HawkEye 360; GPS; miniature CubeSats for education and research; and military/defense satellites.

Not visible in the next 10 days
Identifier
47672, 2021-012BE
Orbit
Decayed
Country
Flag of USUS
Related business
Manufacturer
SpaceX/Seattle
Mission
Decayed Commercial Communications
Bus & Motor
STARLINK, Unknown motor
Mass
260 kg wet, ~248 kg dry
Launch date (UTC)
2021-02-16 (5 years ago)
Launch vehicle
FALCON 9
Launch site
Air Force Eastern Test Range (AFETR)
Object type
Payload
Rocket body
Debris
Shape & HBR
Box + 1 Pan, 10.1 m
Radar Cross Section
13.562 m², Large (>1 m²)

Expand to show TLE details & history
Last TLE update: 1 week ago

TLE from 1 week ago
0 STARLINK-2065
1 47672U 21012BE  26163.63042670  .11152756  12544-4  33699-3 0  9999
2 47672  53.1262 249.7605 0006694 301.4602  58.5793 16.44700016295924
Epoch: 2026-06-12T15:07Z
TLE epoch observation values (Epoch: 2026-06-12T15:07:48.866Z)
Latitude
-0.00003°
Longitude
121.84976°
Altitude
151.993 km
Speed
7.818 km/s
True Right ascension
16h 39m 02s
True Declination
0° 00' 00"
Sunlit
Object was in full shadow at epoch
Visualization orbit readout
Latitude
Unknown
Longitude
Unknown
Altitude
Unknown
Speed
Unknown
Apparent Right ascension
Unknown
Apparent Declination
Unknown
Sunlit
N/A
Visualization observer readout
Local Sidereal Time
21:38:50
Azimuth
Unknown
Elevation
Unknown
Doppler factor
Unknown
Orbital elements
Apogee altitude
157.976 km
Perigee altitude
149.232 km
Semi-major axis
6,531.741 km
Eccentricity
0.00067
Inclination
53.1262°
RAAN
249.7605°
Arg. of periapsis
301.4602°
True anomaly
58.64479°
Mean anomaly
58.5793°
Eccentric anomaly
58.61204°
Mean motion
4.11149 °/min
Orbital period
87.56 mins
BSTAR
0.00033699
Loading maneuver chart data...
Computing Atmospheric mass density...

Documentation

Showing up to 5 results
|